{"data":{"norad_id":68313,"intl_designator":"2026-057V","name":"STARLINK-36815","alt_names":[],"object_type":"PAYLOAD","status":"ACTIVE","operator":null,"country":"US","launch_date":"2026-03-20","launch_site_code":"AFWTR","launch_vehicle":null,"mission":null,"orbit_class":"UNKNOWN","rcs_meters":null,"size_class":null,"mass_kg":null,"dimensions":null,"purposes":["comms"],"wikipedia_slug":null,"has_3d_model":false,"image_url":null,"decayed_at":null,"tle_current":{"epoch":"2026-09-20T01:54:18.012096Z","epoch_age_seconds":84649,"freshness":"FRESH","line1":"1 68313U 26057V   26263.07937514  .00017136  00000+0  53176-3 0  9998","line2":"2 68313  97.2847  28.5532 0000252 122.8354 237.2913 15.33453749 28459","mean_motion":15.33453749,"eccentricity":2.52e-5,"inclination_deg":97.2847,"raan_deg":28.5532,"arg_perigee_deg":122.8354,"mean_anomaly_deg":237.2913,"bstar":0.00053176,"rev_number":2845,"period_min":93.905668882355,"perigee_km":465.34468364892,"apogee_km":465.68960381776,"semimajor_km":6843.6541437333,"source":"CELESTRAK","updated_at":"2026-09-20T09:00:43.880200Z"}}}